Bookmark and Share
Track history (hours):
 

Ryoho Maru No.2

Last reported at 2014-Apr-22 08:21 UTC. Time now 2014-Apr-24 02:04 UTC.
Position N 35°37' E 140°50'.

Length 57 m; draft 4 m.

Type: Tanker. MMSI: 431001062.

NotesDate/timePositionNaut miles runAvg speedWind from/ knotsBaromVisibWave heightAir tempDewpointWater temp
2014-Apr-22 08:21N 35°37' E 140°50'7 8.4
2014-Apr-22 07:31N 35°31' E 140°45'8 8.5
2014-Apr-22 06:33N 35°25' E 140°39'11 8.5
2014-Apr-22 05:17N 35°16' E 140°31'17 8.4
2014-Apr-22 03:14N 35°04' E 140°17'6 9.2
2014-Apr-22 02:33N 35°01' E 140°10'10 9.3
2014-Apr-22 01:28N 34°55' E 140°00'9 8.9
2014-Apr-22 00:30N 34°52' E 139°50'9 9.0
2014-Apr-21 23:29N 34°51' E 139°39'8 8.8
2014-Apr-21 22:32N 34°50' E 139°29'  
2014-Apr-17 13:33N 34°48' E 139°08'12 9.7
2014-Apr-17 12:22N 34°56' E 139°18'8 9.9
2014-Apr-17 11:31N 35°00' E 139°27'9 9.5
2014-Apr-17 10:33N 35°05' E 139°37'10 9.7
2014-Apr-17 09:33N 35°12' E 139°45'9 9.0
2014-Apr-17 08:33N 35°20' E 139°42'9 8.7
2014-Apr-17 07:33N 35°28' E 139°48'9 9.4
2014-Apr-17 06:33N 35°29' E 139°59'2 1.8
2014-Apr-17 05:33N 35°28' E 140°01'0 0.0
2014-Apr-17 04:33N 35°28' E 140°01'1 1.3
2014-Apr-17 03:33N 35°29' E 140°00'5 4.7
2014-Apr-17 02:33N 35°29' E 139°54'8 7.8
2014-Apr-17 01:33N 35°32' E 139°45'0 0.0
2014-Apr-17 00:31N 35°32' E 139°45'1 1.5
2014-Apr-16 23:33N 35°31' E 139°46'1 1.1
2014-Apr-16 22:26N 35°29' E 139°47'0 0.0
2014-Apr-16 21:32N 35°29' E 139°47'0 0.0
2014-Apr-16 20:32N 35°29' E 139°47'0 0.0
2014-Apr-16 19:32N 35°29' E 139°47'0 0.0
2014-Apr-16 18:29N 35°29' E 139°47'0 0.0
2014-Apr-16 17:32N 35°29' E 139°47'0 0.0
2014-Apr-16 16:29N 35°29' E 139°47'0 0.0
2014-Apr-16 15:32N 35°29' E 139°47'0 0.0
2014-Apr-16 14:32N 35°29' E 139°47'0 0.0
2014-Apr-16 13:29N 35°29' E 139°47'0 0.0
2014-Apr-16 12:32N 35°29' E 139°47'0 0.0
2014-Apr-16 11:32N 35°29' E 139°47'0 0.1
2014-Apr-16 10:32N 35°29' E 139°47'0 0.0
2014-Apr-16 09:32N 35°29' E 139°47'0 0.0
2014-Apr-16 08:32N 35°29' E 139°47'0 0.0
2014-Apr-16 07:26N 35°29' E 139°47'0 0.0
2014-Apr-16 06:32N 35°29' E 139°47'0 0.0
2014-Apr-16 05:29N 35°29' E 139°47'0 0.0
2014-Apr-16 04:32N 35°29' E 139°47'0 0.0
2014-Apr-16 03:26N 35°29' E 139°47'0 0.1
2014-Apr-16 02:32N 35°29' E 139°47'0 0.0
2014-Apr-16 01:32N 35°29' E 139°47'0 0.0
2014-Apr-16 00:26N 35°29' E 139°47'0 0.0
2014-Apr-15 23:17N 35°29' E 139°47'0 0.1
2014-Apr-15 22:29N 35°29' E 139°47'0 0.0
2014-Apr-15 21:32N 35°29' E 139°47'0 0.0
2014-Apr-15 20:32N 35°29' E 139°47'0 0.0
2014-Apr-15 19:32N 35°29' E 139°47'0 0.1
2014-Apr-15 18:32N 35°29' E 139°47'0 0.0
2014-Apr-15 17:32N 35°29' E 139°47'0 0.0
2014-Apr-15 16:32N 35°29' E 139°47'0 0.0
2014-Apr-15 15:32N 35°29' E 139°47'0 0.0
2014-Apr-15 14:32N 35°29' E 139°47'0 0.0
2014-Apr-15 12:33N 35°29' E 139°47'0 0.0
2014-Apr-15 11:33N 35°29' E 139°47'0 0.0
2014-Apr-15 10:33N 35°29' E 139°47'0 0.0
2014-Apr-15 09:33N 35°29' E 139°47'0 0.0
2014-Apr-15 08:33N 35°29' E 139°47'0 0.0
2014-Apr-15 07:33N 35°29' E 139°47'0 0.0
2014-Apr-15 06:33N 35°29' E 139°47'0 0.0
2014-Apr-15 05:33N 35°29' E 139°47'0 0.0
2014-Apr-15 03:30N 35°29' E 139°47'0 0.0
2014-Apr-15 02:33N 35°29' E 139°47'0 0.0
2014-Apr-15 01:33N 35°29' E 139°47'0 0.0
2014-Apr-15 00:32N 35°29' E 139°47'0 0.0
2014-Apr-14 23:32N 35°29' E 139°47'0 0.0
2014-Apr-14 22:30N 35°29' E 139°47'8 8.5
2014-Apr-14 21:34N 35°21' E 139°45'9 9.1
2014-Apr-14 20:34N 35°13' E 139°47'1010.5
2014-Apr-14 19:34N 35°02' E 139°45'10 9.8
2014-Apr-14 18:32N 34°52' E 139°48'9 9.7
2014-Apr-14 17:33N 34°54' E 139°60'1010.0
2014-Apr-14 16:34N 34°60' E 140°10'1010.1
2014-Apr-14 15:32N 35°06' E 140°20'10 9.8
2014-Apr-14 14:32N 35°13' E 140°28'9 9.1
2014-Apr-14 13:31N 35°21' E 140°35'  

Dump ship's entire track history

sailing weather and tide predictions

Ryoho Maru No.2 — JD2964 — position and weather